OAL129 LGKV-LGIO

Flight info

Callsign OAL129
Flight time 1h 7m
Altitude 12000
Route LGKV/23 ASKO1E N0350F120 ASKOS G12 TSL M603 LIMJA N732 KRK G12 PARAX PARA1C LGIO/32
Aircraft B738/M-V/N

Departure

Time 2026-04-20 11:35
Airport Kavala Alexander the Great International Airport (LGKV)

Arrival

Time 2026-04-20 12:42
Airport Ioannina King Pyrrhus National Airport (LGIO)
Time Latitude Longitude Altitude Speed Heading
2026-04-20 11:04 40.92075 24.62339 50 ft 0 kts 146°
2026-04-20 11:25 40.92088 24.62327 27 ft 2 kts 146°
2026-04-20 11:26 40.92102 24.62315 28 ft 2 kts 146°
2026-04-20 11:26 40.92115 24.62303 24 ft 2 kts 136°
2026-04-20 11:26 40.92124 24.62285 26 ft 2 kts 79°
2026-04-20 11:26 40.92121 24.62274 25 ft 1 kts 51°
2026-04-20 11:27 40.92120 24.62272 25 ft 0 kts 50°
2026-04-20 11:31 40.92120 24.62274 25 ft 1 kts 54°
2026-04-20 11:31 40.92130 24.62302 24 ft 5 kts 67°
2026-04-20 11:31 40.92123 24.62367 26 ft 10 kts 128°
2026-04-20 11:32 40.92057 24.62436 23 ft 15 kts 145°
2026-04-20 11:32 40.91972 24.62535 26 ft 17 kts 115°
2026-04-20 11:32 40.92004 24.62678 24 ft 19 kts 51°
2026-04-20 11:32 40.92088 24.62834 26 ft 24 kts 56°
2026-04-20 11:33 40.92192 24.63032 23 ft 28 kts 56°
2026-04-20 11:33 40.92299 24.63260 22 ft 30 kts 85°
2026-04-20 11:33 40.92175 24.63388 28 ft 16 kts 189°
2026-04-20 11:33 40.92096 24.63292 27 ft 15 kts 235°
2026-04-20 11:34 40.92037 24.63176 28 ft 15 kts 233°
2026-04-20 11:34 40.91964 24.63043 27 ft 37 kts 234°
2026-04-20 11:34 40.91660 24.62465 26 ft 114 kts 235°
2026-04-20 11:34 40.91075 24.61356 64 ft 174 kts 233°
2026-04-20 11:35 40.90323 24.60000 678 ft 191 kts 232°
2026-04-20 11:35 40.89526 24.58526 1259 ft 205 kts 228°
2026-04-20 11:35 40.88511 24.57251 2016 ft 198 kts 220°
2026-04-20 11:35 40.87420 24.56013 2230 ft 214 kts 221°
2026-04-20 11:36 40.86273 24.54700 2473 ft 222 kts 222°
2026-04-20 11:36 40.85089 24.53317 2689 ft 231 kts 223°
2026-04-20 11:36 40.83872 24.51868 2828 ft 246 kts 223°
2026-04-20 11:36 40.82590 24.50320 3495 ft 251 kts 224°
2026-04-20 11:37 40.81292 24.48736 4183 ft 257 kts 225°
2026-04-20 11:37 40.80054 24.44430 5586 ft 261 kts 265°
2026-04-20 11:37 40.79893 24.42028 6331 ft 264 kts 266°
2026-04-20 11:38 40.79738 24.39606 7044 ft 266 kts 265°
2026-04-20 11:38 40.79576 24.37157 7734 ft 270 kts 265°
2026-04-20 11:38 40.79407 24.34699 8419 ft 273 kts 265°
2026-04-20 11:38 40.79229 24.32197 9130 ft 276 kts 265°
2026-04-20 11:39 40.79044 24.29659 9819 ft 279 kts 265°
2026-04-20 11:39 40.78852 24.27085 10355 ft 288 kts 265°
2026-04-20 11:39 40.78647 24.24374 10596 ft 306 kts 265°
2026-04-20 11:39 40.78426 24.21482 10771 ft 327 kts 265°
2026-04-20 11:40 40.78188 24.18398 10928 ft 348 kts 265°
2026-04-20 11:40 40.77936 24.15168 11289 ft 360 kts 265°
2026-04-20 11:40 40.77674 24.11857 11864 ft 363 kts 265°
2026-04-20 11:40 40.77407 24.08514 11980 ft 370 kts 265°
2026-04-20 11:41 40.77137 24.05133 11991 ft 372 kts 265°
2026-04-20 11:41 40.76864 24.01738 11995 ft 373 kts 265°
2026-04-20 11:41 40.76589 23.98339 11997 ft 372 kts 265°
2026-04-20 11:41 40.76314 23.94946 11996 ft 372 kts 265°
2026-04-20 11:42 40.76038 23.91546 11998 ft 372 kts 265°
2026-04-20 11:42 40.75762 23.88157 11991 ft 372 kts 265°
2026-04-20 11:42 40.75484 23.84758 11999 ft 372 kts 265°
2026-04-20 11:42 40.75208 23.81406 11997 ft 372 kts 265°
2026-04-20 11:43 40.74928 23.78006 11999 ft 373 kts 265°
2026-04-20 11:43 40.74647 23.74604 11993 ft 373 kts 265°
2026-04-20 11:43 40.74365 23.71201 11994 ft 373 kts 265°
2026-04-20 11:43 40.74082 23.67803 11987 ft 373 kts 265°
2026-04-20 11:44 40.73798 23.64407 11995 ft 373 kts 265°
2026-04-20 11:44 40.73512 23.61001 11995 ft 373 kts 265°
2026-04-20 11:44 40.73226 23.57607 11990 ft 373 kts 265°
2026-04-20 11:44 40.72940 23.54212 11984 ft 372 kts 265°
2026-04-20 11:45 40.72652 23.50820 11988 ft 371 kts 265°
2026-04-20 11:45 40.72367 23.47480 11985 ft 371 kts 265°
2026-04-20 11:45 40.72079 23.44107 11991 ft 371 kts 264°
2026-04-20 11:45 40.71791 23.40736 11989 ft 371 kts 264°
2026-04-20 11:46 40.71499 23.37344 11989 ft 371 kts 265°
2026-04-20 11:46 40.71208 23.33971 11996 ft 371 kts 265°
2026-04-20 11:46 40.70916 23.30593 11989 ft 371 kts 265°
2026-04-20 11:46 40.70622 23.27219 11991 ft 371 kts 265°
2026-04-20 11:47 40.70328 23.23846 11988 ft 370 kts 265°
2026-04-20 11:47 40.70033 23.20472 11988 ft 370 kts 264°
2026-04-20 11:47 40.69738 23.17107 11993 ft 370 kts 264°
2026-04-20 11:47 40.69441 23.13739 11992 ft 370 kts 264°
2026-04-20 11:48 40.69143 23.10368 11992 ft 370 kts 264°
2026-04-20 11:48 40.68849 23.07049 11987 ft 370 kts 264°
2026-04-20 11:48 40.68548 23.03663 11995 ft 371 kts 264°
2026-04-20 11:48 40.68247 23.00291 11990 ft 371 kts 264°
2026-04-20 11:49 40.67944 22.96906 11997 ft 372 kts 264°
2026-04-20 11:49 40.67640 22.93523 11989 ft 372 kts 264°
2026-04-20 11:49 40.67335 22.90141 11985 ft 371 kts 264°
2026-04-20 11:49 40.67030 22.86774 11993 ft 370 kts 264°
2026-04-20 11:50 40.66725 22.83411 11996 ft 369 kts 264°
2026-04-20 11:50 40.66419 22.80052 11993 ft 369 kts 264°
2026-04-20 11:50 40.66113 22.76702 11987 ft 368 kts 264°
2026-04-20 11:50 40.65911 22.74484 11986 ft 368 kts 264°
2026-04-20 11:51 40.65602 22.71131 11989 ft 368 kts 264°
2026-04-20 11:51 40.65192 22.66699 11980 ft 369 kts 264°
2026-04-20 11:51 40.64882 22.63344 11984 ft 368 kts 264°
2026-04-20 11:51 40.64572 22.59998 11978 ft 368 kts 264°
2026-04-20 11:52 40.64261 22.56656 11993 ft 368 kts 264°
2026-04-20 11:52 40.64055 22.54441 11988 ft 368 kts 264°
2026-04-20 11:52 40.63741 22.51095 11981 ft 368 kts 264°
2026-04-20 11:52 40.63427 22.47751 11983 ft 368 kts 264°
2026-04-20 11:53 40.63112 22.44410 11986 ft 368 kts 264°
2026-04-20 11:53 40.62797 22.41072 11984 ft 367 kts 264°
2026-04-20 11:53 40.62481 22.37736 11988 ft 367 kts 264°
2026-04-20 11:53 40.62164 22.34404 11986 ft 367 kts 264°
2026-04-20 11:54 40.61846 22.31074 11990 ft 367 kts 264°
2026-04-20 11:54 40.61527 22.27739 11984 ft 367 kts 264°
2026-04-20 11:54 40.61207 22.24408 11992 ft 367 kts 264°
2026-04-20 11:54 40.60886 22.21076 11990 ft 367 kts 264°
2026-04-20 11:55 40.60565 22.17745 11989 ft 367 kts 264°
2026-04-20 11:55 40.60243 22.14417 11982 ft 367 kts 264°
2026-04-20 11:55 40.59919 22.11091 11981 ft 366 kts 264°
2026-04-20 11:55 40.59594 22.07764 11973 ft 367 kts 264°
2026-04-20 11:56 40.59268 22.04428 11981 ft 366 kts 264°
2026-04-20 11:56 40.58946 22.01147 11993 ft 366 kts 264°
2026-04-20 11:56 40.58618 21.97818 11985 ft 367 kts 264°
2026-04-20 11:56 40.58290 21.94485 11988 ft 367 kts 264°
2026-04-20 11:57 40.57961 21.91162 11988 ft 366 kts 264°
2026-04-20 11:57 40.57636 21.87883 11976 ft 365 kts 264°
2026-04-20 11:57 40.57308 21.84563 11984 ft 365 kts 264°
2026-04-20 11:57 40.56977 21.81242 11991 ft 367 kts 264°
2026-04-20 11:58 40.56643 21.77919 11989 ft 366 kts 264°
2026-04-20 11:58 40.56309 21.74610 11984 ft 365 kts 264°
2026-04-20 11:58 40.55976 21.71292 11991 ft 365 kts 264°
2026-04-20 11:58 40.55641 21.67983 11984 ft 364 kts 264°
2026-04-20 11:59 40.55310 21.64713 11984 ft 364 kts 264°
2026-04-20 11:59 40.54975 21.61414 11996 ft 364 kts 264°
2026-04-20 11:59 40.54638 21.58116 11987 ft 363 kts 264°
2026-04-20 11:59 40.54301 21.54821 11982 ft 363 kts 264°
2026-04-20 12:00 40.53965 21.51572 11984 ft 364 kts 264°
2026-04-20 12:00 40.53622 21.48232 11980 ft 363 kts 264°
2026-04-20 12:00 40.53289 21.44996 11987 ft 362 kts 264°
2026-04-20 12:00 40.52952 21.41723 11990 ft 361 kts 264°
2026-04-20 12:01 40.52614 21.38448 11982 ft 361 kts 264°
2026-04-20 12:01 40.52274 21.35173 11983 ft 360 kts 264°
2026-04-20 12:01 40.51932 21.31905 11986 ft 361 kts 264°
2026-04-20 12:01 40.51621 21.28952 11984 ft 361 kts 264°
2026-04-20 12:02 40.51278 21.25678 11990 ft 362 kts 264°
2026-04-20 12:02 40.50939 21.22440 11986 ft 363 kts 264°
2026-04-20 12:02 40.50594 21.19154 11987 ft 363 kts 264°
2026-04-20 12:02 40.50244 21.15855 11986 ft 365 kts 264°
2026-04-20 12:03 40.49906 21.12665 11994 ft 364 kts 264°
2026-04-20 12:03 40.49556 21.09366 11986 ft 365 kts 264°
2026-04-20 12:03 40.49205 21.06066 11994 ft 365 kts 264°
2026-04-20 12:03 40.48854 21.02761 11997 ft 365 kts 264°
2026-04-20 12:04 40.48502 20.99470 12007 ft 364 kts 264°
2026-04-20 12:04 40.48178 20.96166 12004 ft 364 kts 267°
2026-04-20 12:04 40.48203 20.92856 12012 ft 363 kts 276°
2026-04-20 12:04 40.48448 20.89554 12000 ft 363 kts 277°
2026-04-20 12:05 40.48691 20.86259 12005 ft 362 kts 276°
2026-04-20 12:05 40.48929 20.82971 12006 ft 361 kts 276°
2026-04-20 12:05 40.49161 20.79674 11991 ft 360 kts 276°
2026-04-20 12:05 40.49384 20.76437 12002 ft 360 kts 276°
2026-04-20 12:06 40.49606 20.73161 12005 ft 360 kts 276°
2026-04-20 12:06 40.49824 20.69885 12019 ft 360 kts 276°
2026-04-20 12:06 40.50041 20.66613 12010 ft 359 kts 275°
2026-04-20 12:06 40.49840 20.63348 12010 ft 362 kts 255°
2026-04-20 12:07 40.48706 20.60370 12019 ft 369 kts 237°
2026-04-20 12:07 40.46963 20.57888 12047 ft 369 kts 227°
2026-04-20 12:07 40.45140 20.55549 12039 ft 372 kts 227°
2026-04-20 12:07 40.43256 20.53139 12018 ft 375 kts 227°
2026-04-20 12:08 40.41409 20.50770 12029 ft 376 kts 227°
2026-04-20 12:08 40.39540 20.48361 12034 ft 377 kts 227°
2026-04-20 12:08 40.37672 20.45943 12034 ft 378 kts 227°
2026-04-20 12:08 40.35800 20.43513 12014 ft 377 kts 227°
2026-04-20 12:09 40.33940 20.41096 12004 ft 376 kts 227°
2026-04-20 12:09 40.32087 20.38688 12023 ft 375 kts 227°
2026-04-20 12:09 40.30230 20.36275 12018 ft 376 kts 227°
2026-04-20 12:09 40.28372 20.33861 12015 ft 375 kts 227°
2026-04-20 12:10 40.26521 20.31458 12042 ft 375 kts 227°
2026-04-20 12:10 40.24665 20.29051 12013 ft 376 kts 227°
2026-04-20 12:10 40.22830 20.26672 12017 ft 377 kts 227°
2026-04-20 12:10 40.20963 20.24254 12037 ft 377 kts 227°
2026-04-20 12:11 40.19093 20.21835 12036 ft 378 kts 227°
2026-04-20 12:11 40.17222 20.19418 12026 ft 377 kts 227°
2026-04-20 12:11 40.15353 20.17004 12027 ft 378 kts 227°
2026-04-20 12:11 40.13485 20.14593 12034 ft 378 kts 227°
2026-04-20 12:12 40.11607 20.12172 12036 ft 377 kts 227°
2026-04-20 12:12 40.09739 20.09765 12030 ft 378 kts 227°
2026-04-20 12:12 40.07892 20.07387 12039 ft 378 kts 227°
2026-04-20 12:12 40.06018 20.04977 12057 ft 378 kts 227°
2026-04-20 12:13 40.04134 20.02570 11972 ft 380 kts 227°
2026-04-20 12:13 40.02242 20.00185 11983 ft 378 kts 227°
2026-04-20 12:13 40.00371 19.97765 12045 ft 378 kts 228°
2026-04-20 12:13 39.98503 19.95341 12034 ft 380 kts 227°
2026-04-20 12:14 39.96517 19.93063 12023 ft 385 kts 214°
2026-04-20 12:14 39.94002 19.91824 12051 ft 392 kts 192°
2026-04-20 12:14 39.91266 19.91750 12057 ft 396 kts 174°
2026-04-20 12:14 39.88622 19.92739 12049 ft 397 kts 156°
2026-04-20 12:15 39.86282 19.94665 12044 ft 400 kts 138°
2026-04-20 12:15 39.84396 19.97318 12050 ft 398 kts 130°
2026-04-20 12:15 39.82646 20.00036 11966 ft 386 kts 129°
2026-04-20 12:15 39.80966 20.02692 11880 ft 373 kts 129°
2026-04-20 12:16 39.79337 20.05261 11792 ft 361 kts 129°
2026-04-20 12:16 39.77756 20.07731 11623 ft 352 kts 129°
2026-04-20 12:16 39.76192 20.10153 11372 ft 348 kts 130°
2026-04-20 12:16 39.74658 20.12516 11127 ft 345 kts 130°
2026-04-20 12:17 39.73105 20.14899 10893 ft 344 kts 130°
2026-04-20 12:17 39.71558 20.17267 10647 ft 343 kts 130°
2026-04-20 12:17 39.70009 20.19635 10410 ft 344 kts 130°
2026-04-20 12:17 39.68465 20.21995 10176 ft 343 kts 130°
2026-04-20 12:18 39.66918 20.24355 9915 ft 343 kts 129°
2026-04-20 12:18 39.65387 20.26691 9828 ft 337 kts 130°
2026-04-20 12:18 39.63898 20.28959 9732 ft 322 kts 129°
2026-04-20 12:18 39.62484 20.31111 9595 ft 306 kts 129°
2026-04-20 12:19 39.61128 20.33174 9431 ft 295 kts 129°
2026-04-20 12:19 39.59810 20.35181 9154 ft 289 kts 130°
2026-04-20 12:19 39.58504 20.37167 9016 ft 292 kts 129°
2026-04-20 12:19 39.57266 20.39255 8981 ft 292 kts 115°
2026-04-20 12:20 39.56764 20.41742 9004 ft 285 kts 87°
2026-04-20 12:20 39.57085 20.44243 9001 ft 281 kts 65°
2026-04-20 12:20 39.57847 20.46561 9008 ft 280 kts 63°
2026-04-20 12:20 39.58652 20.48866 9009 ft 280 kts 62°
2026-04-20 12:21 39.59452 20.51160 9001 ft 278 kts 63°
2026-04-20 12:21 39.60247 20.53456 8998 ft 280 kts 63°
2026-04-20 12:21 39.61033 20.55734 8998 ft 279 kts 63°
2026-04-20 12:21 39.61822 20.58030 8974 ft 278 kts 63°
2026-04-20 12:22 39.62610 20.60335 8982 ft 282 kts 63°
2026-04-20 12:22 39.63403 20.62663 8975 ft 282 kts 63°
2026-04-20 12:22 39.64197 20.64995 9006 ft 282 kts 63°
2026-04-20 12:22 39.64984 20.67312 8985 ft 279 kts 63°
2026-04-20 12:23 39.65762 20.69609 8987 ft 278 kts 63°
2026-04-20 12:23 39.66545 20.71911 9005 ft 281 kts 63°
2026-04-20 12:23 39.67334 20.74238 9011 ft 283 kts 63°
2026-04-20 12:23 39.68133 20.76598 9004 ft 285 kts 63°
2026-04-20 12:24 39.68926 20.78941 8988 ft 282 kts 63°
2026-04-20 12:24 39.69713 20.81267 8988 ft 280 kts 64°
2026-04-20 12:24 39.70486 20.83579 8987 ft 278 kts 63°
2026-04-20 12:24 39.71204 20.85919 8980 ft 283 kts 75°
2026-04-20 12:25 39.71223 20.88479 9006 ft 289 kts 103°
2026-04-20 12:25 39.70362 20.90826 8985 ft 292 kts 130°
2026-04-20 12:25 39.68794 20.92456 8985 ft 289 kts 157°
2026-04-20 12:25 39.66870 20.93017 9004 ft 284 kts 185°
2026-04-20 12:26 39.64984 20.92420 8991 ft 278 kts 212°
2026-04-20 12:26 39.63558 20.90822 8989 ft 269 kts 240°
2026-04-20 12:26 39.62898 20.88616 9002 ft 261 kts 268°
2026-04-20 12:26 39.63084 20.86315 8987 ft 256 kts 287°
2026-04-20 12:27 39.63597 20.84131 8959 ft 251 kts 289°
2026-04-20 12:27 39.64128 20.82034 8958 ft 245 kts 290°
2026-04-20 12:27 39.64665 20.79929 8956 ft 240 kts 290°
2026-04-20 12:27 39.65188 20.77901 8977 ft 243 kts 292°
2026-04-20 12:28 39.66126 20.76095 8967 ft 244 kts 321°
2026-04-20 12:28 39.67665 20.75153 8960 ft 252 kts 349°
2026-04-20 12:28 39.69421 20.75322 8979 ft 258 kts 14°
2026-04-20 12:28 39.70990 20.76493 8965 ft 266 kts 43°
2026-04-20 12:29 39.71922 20.78552 8939 ft 270 kts 77°
2026-04-20 12:29 39.71792 20.80972 8966 ft 275 kts 111°
2026-04-20 12:29 39.70629 20.82919 8982 ft 276 kts 147°
2026-04-20 12:29 39.68854 20.83696 8961 ft 270 kts 183°
2026-04-20 12:30 39.67088 20.83119 9013 ft 262 kts 210°
2026-04-20 12:30 39.65592 20.81830 8976 ft 255 kts 227°
2026-04-20 12:30 39.64656 20.79979 8973 ft 241 kts 261°
2026-04-20 12:30 39.64610 20.77862 9015 ft 235 kts 270°
2026-04-20 12:31 39.64113 20.75831 8999 ft 242 kts 237°
2026-04-20 12:31 39.62925 20.74308 9003 ft 239 kts 216°
2026-04-20 12:31 39.61482 20.73365 8998 ft 225 kts 207°
2026-04-20 12:31 39.60083 20.72583 8989 ft 213 kts 207°
2026-04-20 12:32 39.58740 20.71831 8990 ft 213 kts 207°
2026-04-20 12:32 39.57375 20.71057 8980 ft 214 kts 207°
2026-04-20 12:32 39.56021 20.70286 8981 ft 211 kts 208°
2026-04-20 12:32 39.54675 20.69514 8988 ft 213 kts 208°
2026-04-20 12:33 39.53271 20.68908 8973 ft 215 kts 185°
2026-04-20 12:33 39.51838 20.69416 8924 ft 220 kts 143°
2026-04-20 12:33 39.50663 20.70726 8917 ft 228 kts 138°
2026-04-20 12:33 39.49460 20.72101 8818 ft 230 kts 139°
2026-04-20 12:34 39.48274 20.73458 8727 ft 225 kts 139°
2026-04-20 12:34 39.47116 20.74778 8659 ft 219 kts 139°
2026-04-20 12:34 39.45985 20.76070 8615 ft 216 kts 139°
2026-04-20 12:34 39.44845 20.77360 8582 ft 221 kts 139°
2026-04-20 12:35 39.43779 20.78814 8471 ft 225 kts 117°
2026-04-20 12:35 39.43453 20.80756 8243 ft 222 kts 85°
2026-04-20 12:35 39.43493 20.82739 8062 ft 220 kts 86°
2026-04-20 12:35 39.43529 20.84702 7845 ft 217 kts 86°
2026-04-20 12:36 39.43668 20.86622 7625 ft 212 kts 67°
2026-04-20 12:36 39.44493 20.88123 7352 ft 202 kts 35°
2026-04-20 12:36 39.45669 20.89036 7152 ft 197 kts 24°
2026-04-20 12:36 39.46481 20.89605 6965 ft 203 kts 25°
2026-04-20 12:37 39.48139 20.90787 6613 ft 207 kts 25°
2026-04-20 12:37 39.49418 20.91674 6252 ft 207 kts 19°
2026-04-20 12:37 39.50785 20.92132 5959 ft 201 kts
2026-04-20 12:37 39.52175 20.92417 5635 ft 203 kts
2026-04-20 12:38 39.53118 20.92622 5426 ft 203 kts
2026-04-20 12:38 39.54549 20.92905 5020 ft 211 kts 358°
2026-04-20 12:38 39.55957 20.92813 4888 ft 195 kts 346°
2026-04-20 12:38 39.57250 20.92288 4615 ft 195 kts 331°
2026-04-20 12:39 39.59290 20.90082 4255 ft 190 kts 309°
2026-04-20 12:39 39.60352 20.89078 4206 ft 193 kts 330°
2026-04-20 12:39 39.61604 20.88448 4171 ft 194 kts 343°
2026-04-20 12:40 39.62876 20.88191 4220 ft 171 kts 339°
2026-04-20 12:40 39.64034 20.87736 3998 ft 179 kts 342°
2026-04-20 12:40 39.65259 20.87285 3554 ft 178 kts 332°
2026-04-20 12:40 39.66158 20.86223 2626 ft 187 kts 308°
2026-04-20 12:41 39.66955 20.84959 2248 ft 173 kts 311°
2026-04-20 12:41 39.67843 20.84013 1999 ft 164 kts 326°
2026-04-20 12:41 39.68754 20.83181 1678 ft 151 kts 323°
2026-04-20 12:41 39.69487 20.82433 1563 ft 98 kts 322°
2026-04-20 12:42 39.69898 20.82025 1563 ft 68 kts 323°
2026-04-20 12:42 39.70160 20.81752 1559 ft 43 kts 321°
2026-04-20 12:42 39.70380 20.81530 1558 ft 37 kts 323°
2026-04-20 12:42 39.70540 20.81338 1558 ft 17 kts 256°
2026-04-20 12:43 39.70520 20.81361 1558 ft 14 kts 122°
2026-04-20 12:43 39.70432 20.81470 1558 ft 19 kts 140°
2026-04-20 12:43 39.70329 20.81577 1558 ft 22 kts 142°
2026-04-20 12:43 39.70010 20.81901 1562 ft 71 kts 144°
2026-04-20 12:44 39.69838 20.81892 1561 ft 18 kts 201°
2026-04-20 12:44 39.69727 20.81935 1562 ft 17 kts 144°
2026-04-20 12:44 39.69632 20.82028 1562 ft 17 kts 149°
2026-04-20 12:44 39.69524 20.82079 1562 ft 16 kts 170°
2026-04-20 12:45 39.69504 20.82083 1562 ft 0 kts 170°